Weather History for Ely, MN

Change the Weather History Date:

Thursday, February 7, 2013

  Actual Average Record
Temperature  
Mean Temperature 11 °F -  
Max Temperature 17 °F 22 °F 46 °F (1998)
Min Temperature 5 °F 1 °F -25 °F (2003)
Degree Days  
Heating Degree Days 54    
Moisture  
Dew Point 8 °F    
Average Humidity 84    
Maximum Humidity 92    
Minimum Humidity 73    
Precipitation  
Precipitation 0.00 in - - ()
Sea Level Pressure  
Sea Level Pressure 30.19 in    
Wind  
Wind Speed 3 mph (NNE)    
Max Wind Speed 6 mph    
Max Gust Speed -    
Visibility 8 miles    
Events Snow    
Averages and records for this station are not official NWS values.
T = Trace of Precipitation, MM = Missing Value Source: NWS Daily Summary

Daily Weather History Graph

Daily Weather History Graph

Search for Another Location

Airport:

Trip Planner

Search our weather history database for the weather conditions in past years. The results will help you decide how hot, cold, wet, or windy it might be!

Date:

Astronomy

Feb. 07, 2013 Rise Set
Actual Time 7:25 AM CST 5:17 PM CST
Civil Twilight 6:53 AM CST 5:50 PM CST
Nautical Twilight 6:16 AM CST 6:27 PM CST
Astronomical Twilight 5:40 AM CST 7:03 PM CST
Moon 5:12 AM CST (2/7) 2:36 PM CST (2/7)
Length of Visible Light 10h 57m
Length of Day
9h 52m
Waning Crescent, 9% of the Moon is Illuminated
Feb 7
Waning Crescent
Feb 10
New
Feb 17
First Quarter
Feb 25
Full
Mar 4
Last Quarter

Hourly Weather History & Observations

Time (CST) Temp. Windchill Dew Point Humidity Pressure Visibility Wind Dir Wind Speed Gust Speed Precip Events Conditions
12:13 AM 12.2 °F 6.1 °F 10.4 °F 92% 30.09 in 10.0 mi ENE 3.5 mph - N/A   Overcast
12:32 AM 12.2 °F 6.1 °F 10.4 °F 92% 30.10 in 10.0 mi NNE 3.5 mph - N/A   Overcast
12:53 AM 10.4 °F 4.0 °F 8.6 °F 92% 30.10 in 10.0 mi NNE 3.5 mph - N/A   Overcast
1:12 AM 10.4 °F 4.0 °F 6.8 °F 85% 30.10 in 10.0 mi NNE 3.5 mph - N/A Snow Light Snow
1:33 AM 8.6 °F 2.0 °F 6.8 °F 92% 30.11 in 10.0 mi NE 3.5 mph - N/A   Overcast
1:53 AM 8.6 °F 0.1 °F 6.8 °F 92% 30.11 in 10.0 mi NNE 4.6 mph - N/A   Overcast
2:12 AM 8.6 °F 0.1 °F 5.0 °F 85% 30.12 in 10.0 mi NNE 4.6 mph - N/A   Overcast
2:33 AM 8.6 °F 2.0 °F 5.0 °F 85% 30.12 in 10.0 mi NNE 3.5 mph - N/A   Overcast
2:53 AM 6.8 °F -0.1 °F 5.0 °F 92% 30.12 in 10.0 mi NNE 3.5 mph - N/A   Overcast
3:12 AM 6.8 °F - 3.2 °F 85% 30.13 in 10.0 mi Calm Calm - N/A   Overcast
3:33 AM 6.8 °F -0.1 °F 3.2 °F 85% 30.12 in 10.0 mi NNE 3.5 mph - N/A   Overcast
3:53 AM 6.8 °F -0.1 °F 3.2 °F 85% 30.13 in 10.0 mi NNE 3.5 mph - N/A   Overcast
4:12 AM 6.8 °F -0.1 °F 3.2 °F 85% 30.13 in 10.0 mi NNE 3.5 mph - N/A   Overcast
4:33 AM 5.0 °F -2.1 °F 1.4 °F 85% 30.13 in 10.0 mi NNE 3.5 mph - N/A   Overcast
4:53 AM 5.0 °F -4.1 °F 1.4 °F 85% 30.14 in 10.0 mi NNE 4.6 mph - N/A   Overcast
5:12 AM 5.0 °F - 1.4 °F 85% 30.14 in 10.0 mi Calm Calm - N/A   Overcast
5:33 AM 6.8 °F -0.1 °F 1.4 °F 79% 30.15 in 10.0 mi NE 3.5 mph - N/A   Overcast
5:53 AM 6.8 °F - 1.4 °F 79% 30.15 in 10.0 mi Calm Calm - N/A Snow Light Snow
6:13 AM 6.8 °F -2.0 °F 1.4 °F 79% 30.14 in 10.0 mi NNE 4.6 mph - N/A Snow Light Snow
6:33 AM 6.8 °F - 3.2 °F 85% 30.15 in 10.0 mi Calm Calm - N/A Snow Light Snow
6:52 AM 5.0 °F - 1.4 °F 85% 30.15 in 10.0 mi Calm Calm - N/A Snow Light Snow
7:13 AM 5.0 °F - 1.4 °F 85% 30.16 in 10.0 mi Calm Calm - N/A Snow Light Snow
7:33 AM 5.0 °F - 1.4 °F 85% 30.16 in 10.0 mi Calm Calm - N/A   Overcast
7:53 AM 5.0 °F -2.1 °F 1.4 °F 85% 30.16 in 10.0 mi NNE 3.5 mph - N/A   Overcast
8:13 AM 5.0 °F - 1.4 °F 85% 30.19 in 7.0 mi Calm Calm - N/A   Overcast
8:33 AM 5.0 °F - 1.4 °F 85% 30.19 in 5.0 mi Calm Calm - N/A Snow Light Snow
8:53 AM 6.8 °F - 3.2 °F 85% 30.19 in 3.0 mi Calm Calm - N/A Snow Light Snow
9:13 AM 6.8 °F - 3.2 °F 85% 30.19 in 5.0 mi Calm Calm - N/A Snow Light Snow
9:33 AM 6.8 °F -2.0 °F 3.2 °F 85% 30.19 in 5.0 mi NNE 4.6 mph - N/A Snow Light Snow
9:53 AM 8.6 °F 0.1 °F 3.2 °F 79% 30.19 in 5.0 mi NNE 4.6 mph - N/A Snow Light Snow
10:13 AM 8.6 °F 0.1 °F 5.0 °F 85% 30.19 in 3.0 mi NNE 4.6 mph - N/A Snow Light Snow
10:33 AM 10.4 °F 0.8 °F 5.0 °F 79% 30.20 in 7.0 mi NNE 5.8 mph - N/A Snow Light Snow
10:53 AM 10.4 °F 4.0 °F 6.8 °F 85% 30.20 in 4.0 mi NNE 3.5 mph - N/A Snow Light Snow
11:13 AM 12.2 °F 6.1 °F 6.8 °F 79% 30.21 in 4.0 mi NNE 3.5 mph - N/A Snow Light Snow
11:32 AM 12.2 °F 4.3 °F 6.8 °F 79% 30.21 in 7.0 mi NNE 4.6 mph - N/A Snow Light Snow
11:53 AM 12.2 °F 4.3 °F 8.6 °F 85% 30.21 in 7.0 mi NNE 4.6 mph - N/A Snow Light Snow
12:13 PM 14.0 °F 5.1 °F 8.6 °F 79% 30.21 in 4.0 mi NE 5.8 mph - N/A Snow Light Snow
12:32 PM 14.0 °F 8.2 °F 8.6 °F 79% 30.21 in 4.0 mi NNE 3.5 mph - N/A Snow Light Snow
12:53 PM 15.8 °F - 10.4 °F 79% 30.21 in 4.0 mi Calm Calm - N/A Snow Light Snow
1:13 PM 15.8 °F 8.6 °F 10.4 °F 79% 30.20 in 3.0 mi NE 4.6 mph - N/A Snow Light Snow
1:32 PM 15.8 °F 8.6 °F 10.4 °F 79% 30.20 in 3.0 mi NNE 4.6 mph - N/A Snow Light Snow
1:53 PM 15.8 °F 7.2 °F 10.4 °F 79% 30.19 in 4.0 mi NNE 5.8 mph - N/A Snow Light Snow
2:13 PM 15.8 °F 8.6 °F 10.4 °F 79% 30.19 in 5.0 mi NNE 4.6 mph - N/A Snow Light Snow
2:32 PM 17.6 °F 10.7 °F 10.4 °F 73% 30.18 in 4.0 mi NNE 4.6 mph - N/A Snow Light Snow
2:53 PM 17.6 °F - 12.2 °F 79% 30.19 in 7.0 mi Calm Calm - N/A Snow Light Snow
3:13 PM 17.6 °F - 12.2 °F 79% 30.19 in 10.0 mi Calm Calm - N/A Snow Light Snow
3:33 PM 17.6 °F - 12.2 °F 79% 30.19 in 7.0 mi Calm Calm - N/A Snow Light Snow
3:53 PM 17.6 °F 12.3 °F 12.2 °F 79% 30.19 in 7.0 mi NNE 3.5 mph - N/A Snow Light Snow
4:13 PM 17.6 °F 12.3 °F 12.2 °F 79% 30.19 in 10.0 mi NE 3.5 mph - N/A Snow Light Snow
4:33 PM 17.6 °F 10.7 °F 12.2 °F 79% 30.20 in 10.0 mi NE 4.6 mph - N/A Snow Light Snow
4:53 PM 17.6 °F 12.3 °F 12.2 °F 79% 30.20 in 10.0 mi NNE 3.5 mph - N/A Snow Light Snow
5:13 PM 17.6 °F 12.3 °F 12.2 °F 79% 30.21 in 10.0 mi ENE 3.5 mph - N/A Snow Light Snow
5:33 PM 17.6 °F 10.7 °F 12.2 °F 79% 30.21 in 10.0 mi NE 4.6 mph - N/A   Overcast
5:53 PM 17.6 °F - 12.2 °F 79% 30.22 in 7.0 mi Calm Calm - N/A Snow Light Snow
6:13 PM 15.8 °F - 12.2 °F 86% 30.22 in 7.0 mi Calm Calm - N/A Snow Light Snow
6:33 PM 15.8 °F 10.2 °F 12.2 °F 86% 30.23 in 7.0 mi NE 3.5 mph - N/A Snow Light Snow
6:53 PM 15.8 °F 10.2 °F 12.2 °F 86% 30.23 in 10.0 mi NNE 3.5 mph - N/A Snow Light Snow
7:13 PM 15.8 °F 10.2 °F 12.2 °F 86% 30.23 in 10.0 mi NE 3.5 mph - N/A Snow Light Snow
7:33 PM 15.8 °F 10.2 °F 10.4 °F 79% 30.23 in 10.0 mi ENE 3.5 mph - N/A Snow Light Snow
7:53 PM 15.8 °F 10.2 °F 10.4 °F 79% 30.23 in 10.0 mi ENE 3.5 mph - N/A Snow Light Snow
8:13 PM 14.0 °F 8.2 °F 10.4 °F 86% 30.23 in 10.0 mi NE 3.5 mph - N/A Snow Light Snow
8:32 PM 14.0 °F - 10.4 °F 86% 30.23 in 10.0 mi Calm Calm - N/A Snow Light Snow
8:53 PM 14.0 °F - 10.4 °F 86% 30.24 in 10.0 mi Calm Calm - N/A Snow Light Snow
9:13 PM 14.0 °F - 10.4 °F 86% 30.25 in 7.0 mi Calm Calm - N/A   Overcast
9:32 PM 12.2 °F - 10.4 °F 92% 30.25 in 5.0 mi Calm Calm - N/A Snow Light Snow
9:53 PM 12.2 °F - 10.4 °F 92% 30.26 in 7.0 mi Calm Calm - N/A Snow Light Snow
10:13 PM 12.2 °F - 10.4 °F 92% 30.26 in 7.0 mi Calm Calm - N/A Snow Light Snow
10:33 PM 12.2 °F - 10.4 °F 92% 30.26 in 7.0 mi Calm Calm - N/A Snow Light Snow
10:53 PM 12.2 °F - 10.4 °F 92% 30.26 in 5.0 mi Calm Calm - N/A Snow Light Snow
11:13 PM 12.2 °F - 10.4 °F 92% 30.26 in 7.0 mi Calm Calm - N/A Snow Light Snow
11:32 PM 12.2 °F - 10.4 °F 92% 30.26 in 5.0 mi Calm Calm - N/A Snow Light Snow
11:53 PM 12.2 °F - 10.4 °F 92% 30.26 in 7.0 mi Calm Calm - N/A Snow Light Snow